Historyczne dane pomiarowe

Dodano dane terminowe – wersja testowa.

Dane z okresu 1951-2019

Wersja bazy: 1.34 [2019-03-16, lista zmian], aktualizacja planowana na 2019-04-15

Dane meteo z obszaru Polski uzyskane na podstawie danych udostępnionych przez Instytut Meteorologii i Gospodarki Wodnej – Państwowy Instytut Badawczy.

 

Wybierz Datę:    

       

TemperaturaWilgotnośćWiatrCiśnienieOpadyŚniegCzas trwania zjawisk
 Stacja t tx tn tng RH VA  wxwx mslp ppp RRR   cm mm wxwxwxwxwxwxwx
2019-07-11 18.4 23.3 10.9 8.2-- 2.3----- 0.0------------
2019-07-10 14.5 19.1 8.6 7.0-- 6.3----- 7.1------------
2019-07-09 15.2 20.4 6.9 3.5-- 3.0----- 0.0------------
2019-07-08 14.3 17.6 8.4 5.7-- 4.3----- 0.4------------
2019-07-07 15.9 20.5 11.5 11.0-- 4.7----- 0.0------------
2019-07-06 19.2 25.2 14.1 12.9-- 7.0----- 5.0------------
2019-07-05 17.4 22.1 11.5 9.1-- 7.7----- 0.0------------
2019-07-04 16.5 22.6 7.4 4.5-- 0.7----- 0.0------------
2019-07-03 15.3 20.6 7.6 5.2-- 3.0----- 0.0------------
2019-07-02 19.6 26.1 14.2 10.0-- 1.0----- 0.0------------
2019-07-01 25.0 32.7 18.8 15.3-- 2.3----- 0.0------------
2019-06-30 25.6 37.3 10.2 8.0-- 0.0----- 0.0------------
2019-06-29 22.0 30.8 9.8 7.2-- 0.0----- 0.0------------
2019-06-28 18.9 26.7 9.1 6.0-- 3.0----- 0.0------------
2019-06-27 23.5 34.7 17.1 16.7-- 0.0----- 0.0------------
2019-06-26 28.7 37.4 16.0 13.8-- 0.7----- 0.0------------
2019-06-25 24.7 32.8 15.0 12.4-- 0.0----- 0.0------------
2019-06-24 21.0 29.5 9.5 5.0-- 0.0----- 0.0------------
2019-06-23 20.2 26.8 13.0 9.8-- 0.7----- 0.0------------
2019-06-22 19.4 25.7 10.7 8.0-- 0.7----- 0.0------------
2019-06-21 21.6 26.9 16.0 14.8-- 4.0----- 0.1------------
2019-06-20 23.8 31.3 14.2 12.4-- 1.0----- 0.0------------
2019-06-19 23.4 30.6 15.1 12.4-- 1.7----- 0.0------------
2019-06-18 21.3 27.8 13.5 9.3-- 0.0----- 0.0------------
2019-06-17 19.6 26.8 9.5 8.0-- 0.7----- 0.0------------
2019-06-16 21.9 25.6 18.3 17.2-- 0.7----- 0.0------------
2019-06-15 25.3 33.8 18.1 17.2-- 3.0----- 4.3------------
2019-06-14 21.2 28.8 12.0 10.5-- 0.7----- 0.0------------
2019-06-13 21.9 28.7 17.6 17.2-- 5.3----- 0.0------------
2019-06-12 27.0 33.6 19.1 16.7-- 0.3----- 0.0------------
2019-06-11 26.5 33.8 18.3 17.7-- 1.0----- 0.0------------
2019-06-10 23.7 30.8 16.1 15.3-- 1.7----- 0.0------------
2019-06-09 17.5 26.7 5.5 4.0-- 1.0----- 0.0------------
2019-06-08 19.6 23.9 14.1 11.9-- 4.7----- 0.0------------
2019-06-07 20.3 24.2 16.7 16.7-- 3.7----- 0.0------------
2019-06-06 22.7 29.8 15.6 13.4-- 3.0----- 0.0------------
2019-06-05 24.1 30.4 16.6 13.4-- 1.0----- 0.0------------
2019-06-04 23.6 30.3 14.8 11.1-- 0.0----- 0.0------------
2019-06-03 23.1 30.4 13.6 10.5-- 0.0----- 0.0------------
2019-06-02 21.3 29.1 11.6 9.8-- 0.3----- 0.0------------
2019-06-01 20.3 27.1 12.2 11.4-- 1.0----- 0.0------------
2019-05-31 17.3 23.7 9.4 7.0-- 5.0----- 0.0------------
2019-05-30 13.0 19.8 2.4 0.2-- 0.0----- 0.0------------
2019-05-29 12.5 16.5 8.0 6.5-- 3.3----- 0.0------------
2019-05-28 15.8 21.5 12.5 10.4-- 8.0----- 1.7------------
2019-05-27 18.7 24.3 11.9 10.5-- 5.3----- 4.0------------
2019-05-26 15.6 22.5 7.4 5.0-- 4.0----- 0.0------------
2019-05-25 15.2 20.5 9.5 7.6-- 0.0----- 0.0------------
2019-05-24 13.2 21.0 3.2 1.7-- 0.3----- 0.0------------
2019-05-23 13.5 16.4 10.6 10.5-- 6.7----- 0.0------------
2019-05-22 14.5 17.7 12.2 12.6-- 8.0----- 3.1------------
2019-05-21 17.1 24.0 10.0 6.5-- 4.3----- 12.2------------
2019-05-20 17.3 22.3 11.5 10.0-- 2.7----- 0.1------------
2019-05-19 16.7 24.3 9.5 7.0-- 3.7----- 0.0------------
2019-05-18 16.2 23.5 8.1 6.5-- 0.7----- 0.0------------
2019-05-17 12.4 18.1 5.1 4.5-- 5.7----- 0.1------------
2019-05-16 10.8 13.5 7.6 7.7-- 7.7----- 0.9------------
2019-05-15 7.9 11.0 4.2 4.0-- 8.0----- 7.8------------
2019-05-14 8.3 13.5 3.0 0.5-- 4.3----- 3.5------------
2019-05-13 9.7 14.3 5.6 3.5-- 4.7----- 0.1------------
166.9 ms

 

Źródłem pochodzenia danych jest Instytut Meteorologii i Gospodarki Wodnej – Państwowy Instytut Badawczy. Dane Instytutu Meteorologii i Gospodarki Wodnej – Państwowego Instytutu Badawczego zostały przetworzone.

Dane źródłowe można odnaleźć na stronie https://dane.imgw.pl